Location: *
(45.9500°N, 9.0833°E)
Time: 19:53:17
(UTC+00:00)

Vanguard 2 Rocket - Pass Details

Date: 20 June 2021
Orbit: 555 x 3325 km, 32.9° (Epoch: 30 July)

Event Time Altitude Azimuth Distance (km) Brightness Sun altitude
Rises 00:24:52 0° 273° (W) 6,257 11.1 -19.3°
Reaches altitude 10° 00:31:04 10° 260° (W) 4,683 10.3 -19.0°
Enters shadow 00:37:36 19° 229° (SW) 3,347 9.3 -18.7°
Maximum altitude 00:38:34 19° 222° (SW) 3,228 - -18.6°
Drops below altitude 10° 00:44:04 10° 181° (S) 3,250 - -18.3°
Sets 00:47:20 0° 162° (SSE) 3,828 - -18.2°
